This is the latest recevied weather packets stored in our database for station/object K1RTA-1. If no packets are shown the sender has not sent any weather packets the latest 10 day(s).
| Time | Temp. | Humidity | Pressure | Rain* | Wind** | Luminosity | Snow |
|---|---|---|---|---|---|---|---|
| 1777341199 | 6.11° C | 83% | 1025.7 hPa | 0 mm | - | - | - |
| 1777340300 | 6.11° C | 83% | 1025.3 hPa | 0 mm | - | - | - |
| 1777339400 | 6.67° C | 82% | 1025.5 hPa | 0 mm | - | - | - |
| 1777338499 | 6.67° C | 82% | 1025.7 hPa | 0 mm | - | - | - |
| 1777337600 | 7.22° C | 81% | 1025.9 hPa | 0 mm | - | - | - |
| 1777336700 | 7.78° C | 81% | 1025.7 hPa | 0 mm | - | - | - |
| 1777335799 | 7.78° C | 80% | 1025.6 hPa | 0 mm | - | - | - |
| 1777334900 | 8.33° C | 80% | 1025.7 hPa | 0 mm | - | - | - |
| 1777333999 | 8.33° C | 78% | 1025.7 hPa | 0 mm | - | - | - |
| 1777333100 | 8.89° C | 77% | 1025.7 hPa | 0 mm | - | - | - |
| 1777332199 | 9.44° C | 75% | 1025.7 hPa | 0 mm | - | - | - |
| 1777331300 | 10° C | 74% | 1025.9 hPa | 0 mm | - | - | - |
| 1777330399 | 10° C | 74% | 1025.9 hPa | 0 mm | - | - | - |
| 1777329501 | 10.56° C | 72% | 1025.7 hPa | 0 mm | - | - | - |
| 1777328600 | 10.56° C | 71% | 1025.8 hPa | 0 mm | - | - | - |
| 1777327699 | 11.11° C | 71% | 1025.8 hPa | 0 mm | - | - | - |
| 1777326800 | 11.67° C | 69% | 1025.7 hPa | 0 mm | - | - | - |
| 1777325901 | 12.22° C | 68% | 1025.6 hPa | 0 mm | - | - | - |
| 1777325001 | 12.22° C | 67% | 1025.3 hPa | 0 mm | - | - | - |
| 1777324101 | 12.78° C | 66% | 1025.3 hPa | 0 mm | - | - | - |
| 1777323200 | 13.33° C | 63% | 1025.2 hPa | 0 mm | - | - | - |
| 1777322299 | 15° C | 59% | 1025.1 hPa | 0 mm | - | - | - |
| 1777321400 | 15.56° C | 58% | 1025.1 hPa | 0 mm | - | - | - |
| 1777320500 | 15.56° C | 57% | 1025.1 hPa | 0 mm | - | - | - |
| 1777319601 | 15.56° C | 57% | 1025.1 hPa | 0 mm | - | - | - |
* Rain latest hour (hover to see other rain measurements)
** Current wind speed in m/s (hover to see current wind gust speed)